sat.trackr.live / text

‹ back to catalog

IRIDIUM 140

NORAD 43252 · 2018-030D

PAYLOAD ACTIVE UNKNOWN

§ Identity

Operator
Country
US
Launch date
2018-03-30
Launch site
AFWTR
Launch vehicle
Mass (kg)
RCS (m²)

Purposes: comms

External: N2YO · Heavens-Above · Gunter

§ Orbital elements

Epoch: 2026-09-19T22:49:15.231072Z

Period
100.40 min
Inclination
86.3915°
Eccentricity
0.0002280
Mean motion
14.34217801 rev/d
Perigee alt
776.0 km
Apogee alt
779.3 km
Semi-major
7,155.8 km
B*
2.2121e-5
RAAN
250.7915°
Arg perigee
87.2268°
Mean anomaly
272.9188°
Rev number
44,377

§ Raw data

IRIDIUM 1401 43252U 18030D   26262.95087073  .00000082  00000+0  22121-4 0  99962 43252  86.3915 250.7915 0002280  87.2268 272.9188 14.34217801443777

JSON: /api/v1/satellites/43252 · /tle

For live sub-satellite position, see the globe view (requires WebGL).

§ Visibility from observer

Set your observer location to see the next 7 days of passes ≥ 10°. The values pass through the URL so the page stays shareable.

No JS? Fill the form by hand. The geolocation button needs JavaScript.